Wilmington, OH

7:34 PM EDT on March 26, 2017 (GMT -0400)
Airborne

Weather History for KILN - January, 2013

Change the Weather History Date:

Thursday, January 3, 2013

  Actual Average (KFFO) Record (KFFO)
Temperature  
Mean Temperature 22 °F -  
Max Temperature 33 °F 37 °F 62 °F (2004)
Min Temperature 10 °F 22 °F -1 °F (2014)
Degree Days  
Heating Degree Days 44    
Moisture  
Dew Point 15 °F    
Average Humidity 74    
Maximum Humidity 92    
Minimum Humidity 50    
Precipitation  
Precipitation 0.00 in - - ()
Sea Level Pressure  
Sea Level Pressure 30.30 in    
Wind  
Wind Speed 6 mph (WSW)    
Max Wind Speed 18 mph    
Max Gust Speed 30 mph    
Visibility 7 miles    
Events      
Averages and records for this station are not official NWS values.
T = Trace of Precipitation, MM = Missing Value Source: NWS Daily Summary

Daily Weather History Graph

Daily Weather History Graph

Search for Another Location

Airport or City:

Trip Planner

Search our weather history database for the weather conditions in past years. The results will help you decide how hot, cold, wet, or windy it might be!

Date:

Astronomy

Jan. 03, 2013 Rise Set
Actual Time 7:55 AM EST 5:24 PM EST
Civil Twilight 7:25 AM EST 5:54 PM EST
Nautical Twilight 6:51 AM EST 6:27 PM EST
Astronomical Twilight 6:19 AM EST 7:00 PM EST
Moon 11:56 PM EST (1/3) 11:08 AM EST (1/3)
Length of Visible Light 10h 28m
Length of Day
9h 28m
Waning Gibbous, 65% of the Moon is Illuminated
Jan 3
Waning Gibbous
Jan 4
Last Quarter
Jan 11
New
Jan 18
First Quarter
Jan 26
Full

Hourly Weather History & Observations

Time (EST) Temp. Windchill Dew Point Humidity Pressure Visibility Wind Dir Wind Speed Gust Speed Precip Events Conditions
12:54 AM 12.0 °F - 10.0 °F 92% 30.30 in 3.0 mi Calm Calm - N/A   Clear
1:03 AM 12.2 °F - 10.4 °F 92% 30.18 in 2.5 mi Calm Calm - N/A   Clear
1:26 AM 14.0 °F - 10.4 °F 86% 30.19 in 3.0 mi Calm Calm - N/A   Clear
1:54 AM 14.0 °F - 10.9 °F 88% 30.29 in 2.5 mi Calm Calm - N/A   Clear
2:54 AM 10.9 °F - 8.1 °F 88% 30.31 in 2.0 mi Calm Calm - N/A   Clear
3:54 AM 10.0 °F 3.6 °F 8.1 °F 92% 30.29 in 3.0 mi South 3.5 mph - N/A   Clear
4:54 AM 12.0 °F 5.9 °F 9.0 °F 88% 30.30 in 3.0 mi SW 3.5 mph - N/A   Clear
5:54 AM 10.0 °F 1.8 °F 8.1 °F 92% 30.31 in 3.0 mi SW 4.6 mph - N/A   Clear
6:54 AM 10.0 °F 0.4 °F 7.0 °F 87% 30.32 in 4.0 mi SSW 5.8 mph - N/A   Clear
7:54 AM 12.0 °F 2.7 °F 8.1 °F 84% 30.33 in 6.0 mi SSW 5.8 mph - N/A   Clear
8:54 AM 15.1 °F 6.4 °F 12.0 °F 88% 30.33 in 5.0 mi SSW 5.8 mph - N/A   Clear
9:54 AM 21.9 °F 12.5 °F 16.0 °F 78% 30.32 in 8.0 mi SW 8.1 mph - N/A   Clear
10:54 AM 27.0 °F 17.3 °F 14.0 °F 58% 30.32 in 10.0 mi WSW 10.4 mph - N/A   Clear
11:54 AM 28.9 °F 18.2 °F 15.1 °F 56% 30.30 in 10.0 mi WSW 13.8 mph - N/A   Clear
12:54 PM 30.9 °F 22.2 °F 17.1 °F 57% 30.28 in 10.0 mi WSW 10.4 mph - N/A   Clear
1:54 PM 33.1 °F 23.0 °F 16.0 °F 50% 30.27 in 10.0 mi West 15.0 mph - N/A   Clear
2:22 PM 33.8 °F 23.2 °F 17.6 °F 52% 30.17 in 10.0 mi West 17.3 mph - N/A   Mostly Cloudy
2:29 PM 33.8 °F 22.8 °F 19.4 °F 56% 30.17 in 10.0 mi West 18.4 mph - N/A   Mostly Cloudy
2:54 PM 33.1 °F 22.6 °F 19.9 °F 59% 30.29 in 10.0 mi West 16.1 mph 23.0 mph N/A   Scattered Clouds
3:54 PM 32.0 °F 22.5 °F 21.0 °F 64% 30.31 in 10.0 mi WNW 12.7 mph - N/A   Partly Cloudy
4:54 PM 30.9 °F 20.7 °F 19.9 °F 64% 30.33 in 9.0 mi West 13.8 mph - N/A   Partly Cloudy
5:54 PM 28.9 °F 21.1 °F 19.9 °F 69% 30.35 in 10.0 mi West 8.1 mph - N/A   Mostly Cloudy
6:54 PM 28.9 °F 21.9 °F 21.0 °F 72% 30.36 in 10.0 mi WSW 6.9 mph - N/A   Overcast
7:54 PM 30.0 °F 21.7 °F 21.0 °F 69% 30.36 in 10.0 mi West 9.2 mph - N/A   Overcast
8:54 PM 30.0 °F 20.5 °F 21.0 °F 69% 30.36 in 10.0 mi West 11.5 mph - N/A   Overcast
9:54 PM 30.0 °F 18.3 °F 21.0 °F 69% 30.36 in 10.0 mi West 17.3 mph 29.9 mph N/A   Overcast
10:54 PM 28.9 °F 19.2 °F 21.9 °F 75% 30.37 in 10.0 mi WNW 11.5 mph - N/A   Overcast
11:54 PM 28.9 °F 19.2 °F 21.9 °F 75% 30.36 in 9.0 mi West 11.5 mph 19.6 mph N/A   Overcast